When you browse on this site, cookies collect data to enhance your experience and personalize the content and advertising you see.
Visit our Privacy Policy to learn more. By continuing to use the site, you agree to this use of cookies and data.
  • en Suisse
  • Liste des pays
  • À 7 jours
  • Température de l'eau
  • Carte météo
  • Widgets météo
  • user-avatar
    Se connecter

    Météo par heure à Ordino

    Ce jour, 29 Mai, Vendredi

    Heure Température Précipitation Vent Pression Humidité
    00:00 +10°C° 0 mm 1 m/s 635 mmHg 88%
    01:00 +10°C° 0 mm 1 m/s 635 mmHg 87%
    02:00 +10°C° 0 mm 1 m/s 634 mmHg 85%
    03:00 +9°C° 0 mm 1 m/s 634 mmHg 84%
    04:00 +10°C° 0 mm 1 m/s 634 mmHg 81%
    05:00 +11°C° 0 mm 1 m/s 634 mmHg 79%
    06:00 +12°C° 0 mm 1 m/s 635 mmHg 77%
    07:00 +14°C° 0 mm 1 m/s 635 mmHg 65%
    08:00 +18°C° 0 mm 1 m/s 636 mmHg 53%
    09:00 +20°C° 0 mm 1 m/s 636 mmHg 41%
    10:00 +20°C° 0 mm 1 m/s 636 mmHg 39%
    11:00 +20°C° 0 mm 2 m/s 636 mmHg 38%
    12:00 +21°C° 0 mm 2 m/s 636 mmHg 36%
    13:00 +20°C° 0.2 mm 2 m/s 636 mmHg 41%
    14:00 +20°C° 0.2 mm 2 m/s 635 mmHg 46%
    15:00 +19°C° 0.2 mm 2 m/s 635 mmHg 51%
    16:00 +17°C° 0.6 mm 2 m/s 634 mmHg 61%
    17:00 +16°C° 0.6 mm 2 m/s 634 mmHg 71%
    18:00 +15°C° 0.6 mm 2 m/s 633 mmHg 81%
    19:00 +13°C° 0.1 mm 1 m/s 633 mmHg 85%
    20:00 +12°C° 0.1 mm 1 m/s 633 mmHg 90%
    21:00 +10°C° 0.1 mm 1 m/s 633 mmHg 94%
    22:00 +10°C° 0 mm 1 m/s 633 mmHg 93%
    23:00 +9°C° 0 mm 1 m/s 633 mmHg 92%

    Demain, 30 Mai, Samedi

    Heure Température Précipitation Vent Pression Humidité
    00:00 +9°C° 0 mm 1 m/s 633 mmHg 91%
    01:00 +9°C° 0 mm 1 m/s 633 mmHg 90%
    02:00 +9°C° 0 mm 1 m/s 632 mmHg 89%
    03:00 +9°C° 0 mm 1 m/s 632 mmHg 87%
    04:00 +10°C° 0 mm 1 m/s 633 mmHg 86%
    05:00 +10°C° 0 mm 1 m/s 633 mmHg 85%
    06:00 +11°C° 0 mm 1 m/s 633 mmHg 83%
    07:00 +13°C° 0 mm 1 m/s 634 mmHg 73%
    08:00 +15°C° 0 mm 1 m/s 635 mmHg 63%
    09:00 +18°C° 0 mm 1 m/s 636 mmHg 53%
    10:00 +19°C° 0 mm 1 m/s 636 mmHg 50%
    11:00 +19°C° 0 mm 2 m/s 636 mmHg 48%
    12:00 +20°C° 0 mm 2 m/s 636 mmHg 46%
    13:00 +19°C° 0.3 mm 2 m/s 635 mmHg 51%
    14:00 +19°C° 0.3 mm 2 m/s 635 mmHg 56%
    15:00 +18°C° 0.3 mm 2 m/s 634 mmHg 61%
    16:00 +17°C° 0.3 mm 2 m/s 634 mmHg 67%
    17:00 +16°C° 0.3 mm 1 m/s 633 mmHg 73%
    18:00 +15°C° 0.3 mm 1 m/s 633 mmHg 79%
    19:00 +14°C° 0 mm 1 m/s 633 mmHg 84%
    20:00 +12°C° 0 mm 1 m/s 632 mmHg 89%
    21:00 +11°C° 0 mm 1 m/s 632 mmHg 94%
    22:00 +11°C° 0 mm 1 m/s 632 mmHg 93%
    23:00 +10°C° 0 mm 1 m/s 632 mmHg 92%

    Après-demain, 31 Mai, Dimanche

    Heure Température Précipitation Vent Pression Humidité
    00:00 +10°C° 0 mm 1 m/s 631 mmHg 90%
    01:00 +10°C° 0 mm 1 m/s 631 mmHg 90%
    02:00 +10°C° 0 mm 1 m/s 631 mmHg 89%
    03:00 +9°C° 0 mm 1 m/s 631 mmHg 88%
    04:00 +10°C° 0 mm 1 m/s 631 mmHg 84%
    05:00 +11°C° 0 mm 1 m/s 632 mmHg 81%
    06:00 +12°C° 0 mm 1 m/s 632 mmHg 78%
    07:00 +14°C° 0 mm 1 m/s 633 mmHg 68%
    08:00 +16°C° 0 mm 1 m/s 634 mmHg 58%
    09:00 +20°C° 0 mm 1 m/s 635 mmHg 48%
    10:00 +19°C° 0 mm 2 m/s 635 mmHg 46%
    11:00 +20°C° 0 mm 2 m/s 635 mmHg 44%
    12:00 +21°C° 0 mm 2 m/s 635 mmHg 42%
    13:00 +20°C° 0.6 mm 2 m/s 635 mmHg 50%
    14:00 +19°C° 0.6 mm 2 m/s 634 mmHg 59%
    15:00 +19°C° 0.6 mm 1 m/s 633 mmHg 68%
    16:00 +18°C° 0.8 mm 1 m/s 633 mmHg 74%
    17:00 +18°C° 0.8 mm 1 m/s 633 mmHg 79%
    18:00 +16°C° 0.8 mm 1 m/s 632 mmHg 85%
    19:00 +14°C° 0.4 mm 1 m/s 632 mmHg 87%
    20:00 +13°C° 0.4 mm 1 m/s 632 mmHg 90%
    21:00 +12°C° 0.4 mm 1 m/s 632 mmHg 93%
    22:00 +12°C° 0.3 mm 1 m/s 632 mmHg 92%
    23:00 +12°C° 0.3 mm 1 m/s 632 mmHg 91%

    1 Juin, Lundi

    Heure Température Précipitation Vent Pression Humidité
    00:00 +11°C° 0.3 mm 1 m/s 632 mmHg 90%
    01:00 +11°C° 0.2 mm 1 m/s 632 mmHg 90%
    02:00 +11°C° 0.2 mm 1 m/s 631 mmHg 89%
    03:00 +11°C° 0.2 mm 1 m/s 631 mmHg 89%
    04:00 +11°C° 0 mm 1 m/s 632 mmHg 88%
    05:00 +12°C° 0 mm 1 m/s 632 mmHg 87%
    06:00 +13°C° 0 mm 1 m/s 632 mmHg 85%
    07:00 +15°C° 0 mm 1 m/s 633 mmHg 74%
    08:00 +18°C° 0 mm 1 m/s 634 mmHg 62%
    09:00 +20°C° 0 mm 1 m/s 635 mmHg 50%
    10:00 +19°C° 0.2 mm 2 m/s 635 mmHg 50%
    11:00 +20°C° 0.2 mm 2 m/s 635 mmHg 50%
    12:00 +20°C° 0.2 mm 2 m/s 635 mmHg 50%
    13:00 +20°C° 0.5 mm 2 m/s 635 mmHg 52%
    14:00 +19°C° 0.5 mm 2 m/s 635 mmHg 55%
    15:00 +19°C° 0.5 mm 2 m/s 635 mmHg 58%
    16:00 +19°C° 0.3 mm 1 m/s 635 mmHg 62%
    17:00 +18°C° 0.3 mm 1 m/s 634 mmHg 67%
    18:00 +16°C° 0.3 mm 1 m/s 634 mmHg 72%
    19:00 +15°C° 0 mm 1 m/s 634 mmHg 79%
    20:00 +13°C° 0 mm 1 m/s 634 mmHg 86%
    21:00 +11°C° 0 mm 1 m/s 633 mmHg 92%
    22:00 +11°C° 0 mm 1 m/s 633 mmHg 90%
    23:00 +11°C° 0 mm 1 m/s 633 mmHg 88%

    2 Juin, Mardi

    Heure Température Précipitation Vent Pression Humidité
    00:00 +10°C° 0 mm 1 m/s 633 mmHg 86%
    01:00 +10°C° 0 mm 1 m/s 633 mmHg 85%
    02:00 +10°C° 0 mm 1 m/s 633 mmHg 83%
    03:00 +10°C° 0 mm 1 m/s 632 mmHg 81%
    04:00 +11°C° 0 mm 1 m/s 633 mmHg 79%
    05:00 +12°C° 0 mm 1 m/s 633 mmHg 77%
    06:00 +13°C° 0 mm 1 m/s 634 mmHg 75%
    07:00 +15°C° 0 mm 1 m/s 635 mmHg 70%
    08:00 +18°C° 0 mm 1 m/s 635 mmHg 65%
    09:00 +19°C° 0 mm 2 m/s 636 mmHg 60%
    10:00 +18°C° 1.2 mm 2 m/s 636 mmHg 65%
    11:00 +18°C° 1.2 mm 2 m/s 635 mmHg 70%
    12:00 +18°C° 1.2 mm 2 m/s 635 mmHg 76%
    13:00 +18°C° 2 mm 1 m/s 634 mmHg 80%
    14:00 +16°C° 2 mm 1 m/s 634 mmHg 84%
    15:00 +16°C° 2 mm 1 m/s 633 mmHg 88%
    16:00 +14°C° 1.7 mm 0 m/s 633 mmHg 88%
    17:00 +14°C° 1.7 mm 0 m/s 633 mmHg 89%
    18:00 +14°C° 1.7 mm 0 m/s 632 mmHg 89%
    19:00 +13°C° 0.1 mm 0 m/s 632 mmHg 89%
    20:00 +12°C° 0.1 mm 0 m/s 632 mmHg 89%
    21:00 +12°C° 0.1 mm 1 m/s 632 mmHg 89%
    22:00 +12°C° 0 mm 1 m/s 632 mmHg 89%
    23:00 +12°C° 0 mm 1 m/s 631 mmHg 88%

    3 Juin, Mercredi

    Heure Température Précipitation Vent Pression Humidité
    00:00 +12°C° 0 mm 1 m/s 631 mmHg 87%
    01:00 +12°C° 0 mm 1 m/s 631 mmHg 87%
    02:00 +12°C° 0 mm 1 m/s 630 mmHg 86%
    03:00 +12°C° 0 mm 1 m/s 630 mmHg 86%
    04:00 +12°C° 0 mm 1 m/s 630 mmHg 86%
    05:00 +13°C° 0 mm 1 m/s 630 mmHg 85%
    06:00 +14°C° 0 mm 1 m/s 631 mmHg 85%
    07:00 +15°C° 0.5 mm 1 m/s 631 mmHg 81%
    08:00 +16°C° 0.5 mm 1 m/s 631 mmHg 77%
    09:00 +18°C° 0.5 mm 1 m/s 632 mmHg 74%
    10:00 +18°C° 1 mm 2 m/s 632 mmHg 73%
    11:00 +18°C° 1 mm 2 m/s 632 mmHg 72%
    12:00 +18°C° 1 mm 2 m/s 632 mmHg 71%
    13:00 +18°C° 0.9 mm 2 m/s 631 mmHg 72%
    14:00 +18°C° 0.9 mm 2 m/s 631 mmHg 73%
    15:00 +19°C° 0.9 mm 1 m/s 630 mmHg 73%
    16:00 +19°C° 0.5 mm 1 m/s 630 mmHg 77%
    17:00 +18°C° 0.5 mm 1 m/s 629 mmHg 80%
    18:00 +16°C° 0.5 mm 1 m/s 629 mmHg 83%
    19:00 +15°C° 0.3 mm 1 m/s 629 mmHg 85%
    20:00 +14°C° 0.3 mm 1 m/s 629 mmHg 88%
    21:00 +12°C° 0.3 mm 1 m/s 629 mmHg 90%
    22:00 +12°C° 0.1 mm 1 m/s 629 mmHg 90%
    23:00 +12°C° 0.1 mm 1 m/s 629 mmHg 89%
    Voir plus